SQ6ELQ-11 Weather Reports


time (UTC)temp
C
wind
direction
speed
KPH
gust
KPH
rain 1hr
cm
rain 24hr
cm
rain mn
cm
humidity
%
barometer
mb
20260504150346 25 0 0.0 0.0 0.00 0.00 0.00 23 1013.1
20260504140956 23 0 0.0 0.0 0.00 0.00 0.00 25 1013.4
20260504081202 18 0 0.0 0.0 0.00 0.00 0.00 33 1014.7
20260504044959 14 0 0.0 0.0 0.00 0.00 0.00 38 1015.1
20260504043203 14 0 0.0 0.0 0.00 0.00 0.00 38 1014.6
20260504041325 14 0 0.0 0.0 0.00 0.00 0.00 38 1014.3
20260504035421 14 0 0.0 0.0 0.00 0.00 0.00 37 1014.2
20260504033728 14 0 0.0 0.0 0.00 0.00 0.00 37 1014.2
20260504031831 14 0 0.0 0.0 0.00 0.00 0.00 37 1014.0
20260504030033 14 0 0.0 0.0 0.00 0.00 0.00 36 1014.0
20260504024303 14 0 0.0 0.0 0.00 0.00 0.00 36 1014.1
20260504022406 15 0 0.0 0.0 0.00 0.00 0.00 35 1013.9
20260504020520 15 0 0.0 0.0 0.00 0.00 0.00 35 1014.2
20260504014717 15 0 0.0 0.0 0.00 0.00 0.00 34 1014.2
20260504012826 15 0 0.0 0.0 0.00 0.00 0.00 34 1014.3
20260504010851 15 0 0.0 0.0 0.00 0.00 0.00 34 1014.3
20260504005154 15 0 0.0 0.0 0.00 0.00 0.00 34 1014.3
20260504003222 15 0 0.0 0.0 0.00 0.00 0.00 33 1014.1
20260504001522 15 0 0.0 0.0 0.00 0.00 0.00 33 1014.3
20260503235546 15 0 0.0 0.0 0.00 0.00 0.00 33 1014.6
20260503233916 15 0 0.0 0.0 0.00 0.00 0.00 33 1014.6
20260503232103 15 0 0.0 0.0 0.00 0.00 0.00 33 1014.7
20260503230211 15 0 0.0 0.0 0.00 0.00 0.00 34 1014.7
20260503224518 15 0 0.0 0.0 0.00 0.00 0.00 34 1014.8
20260503222821 15 0 0.0 0.0 0.00 0.00 0.00 34 1014.8
20260503221001 16 0 0.0 0.0 0.00 0.00 0.00 33 1014.8
20260503215200 16 0 0.0 0.0 0.00 0.00 0.00 33 1014.9
20260503213233 16 0 0.0 0.0 0.00 0.00 0.00 32 1014.9
20260503211351 16 0 0.0 0.0 0.00 0.00 0.00 32 1014.8
20260503205606 16 0 0.0 0.0 0.00 0.00 0.00 30 1015.0
20260503203915 17 0 0.0 0.0 0.00 0.00 0.00 29 1015.0
20260503202101 17 0 0.0 0.0 0.00 0.00 0.00 29 1015.1
20260503200336 17 0 0.0 0.0 0.00 0.00 0.00 28 1015.2
20260503194348 17 0 0.0 0.0 0.00 0.00 0.00 27 1015.4
20260503192453 17 0 0.0 0.0 0.00 0.00 0.00 27 1015.4
20260503190701 17 0 0.0 0.0 0.00 0.00 0.00 27 1015.2
20260503184756 17 0 0.0 0.0 0.00 0.00 0.00 25 1015.1
20260503183116 18 0 0.0 0.0 0.00 0.00 0.00 24 1014.9
20260503181151 19 0 0.0 0.0 0.00 0.00 0.00 22 1014.9
20260503175353 20 0 0.0 0.0 0.00 0.00 0.00 19 1014.9
20260503173546 21 0 0.0 0.0 0.00 0.00 0.00 18 1014.7
20260503171805 21 0 0.0 0.0 0.00 0.00 0.00 17 1014.7
20260503170120 21 0 0.0 0.0 0.00 0.00 0.00 19 1014.8